• MPC Preparation (Info)

  • MPEC 2014-E57 : 2014 EN12

    The following Minor Planet Electronic Circular may be linked-to from your own Web pages, but must not otherwise be redistributed electronically.

    A form allowing access to any MPEC is at the bottom of this page.


    Read MPEC 2014-E56 Read MPEC 2014-E58


    M.P.E.C. 2014-E57                                Issued 2014 Mar. 10, 19:59 UT
    
         The Minor Planet Electronic Circulars contain information on unusual
             minor planets and routine data on comets.  They are published
       on behalf of Commission 20 of the International Astronomical Union by the
              Minor Planet Center, Smithsonian Astrophysical Observatory,
                              Cambridge, MA 02138, U.S.A.
    
                 Prepared using the Tamkin Foundation Computer Network
    
                                  MPC@CFA.HARVARD.EDU
                URL https://www.minorplanetcenter.net/    ISSN 1523-6714
    
                                       2014 EN12
    
    Observations:
         K14E12N* C2014 03 08.39097 12 50 58.08 +09 17 56.0          20.7 VqEE057G96
         K14E12N  C2014 03 08.39773 12 51 04.14 +09 18 23.3          21.0 VqEE057G96
         K14E12N  C2014 03 08.40449 12 51 10.22 +09 18 50.8          21.0 VqEE057G96
         K14E12N  C2014 03 08.41125 12 51 16.34 +09 19 17.9          20.6 VqEE057G96
         K14E12N  C2014 03 08.41786 12 51 22.34 +09 19 44.6          20.9 VqEE057G96
         K14E12N  C2014 03 08.41903 12 51 23.49 +09 19 49.7          22.0 VqEE057G96
         K14E12N  C2014 03 08.42019 12 51 24.47 +09 19 54.0          21.3 VqEE057G96
         K14E12N  C2014 03 08.42136 12 51 25.54 +09 19 59.2          21.5 VqEE057G96
         K14E12N  C2014 03 08.45241 12 51 53.74 +09 22 04.1          20.8 VqEE057G96
         K14E12N  C2014 03 08.45346 12 51 54.72 +09 22 09.3          21.5 VqEE057G96
         K14E12N  C2014 03 08.45450 12 51 55.63 +09 22 12.4          20.5 VqEE057G96
         K14E12N  C2014 03 08.45554 12 51 56.59 +09 22 16.1          20.2 VqEE057G96
         K14E12N  C2014 03 10.38447 13 25 47.62 +11 40 29.2          21.1 VqEE057G96
         K14E12N  C2014 03 10.38809 13 25 51.61 +11 40 45.2                qEE057G96
         K14E12N  C2014 03 10.39170 13 25 55.63 +11 41 01.5          21.1 VqEE057G96
         K14E12N  C2014 03 10.39531 13 25 59.79 +11 41 17.7          21.6 VqEE057G96
         K14E12N  C2014 03 10.49613 13 27 53.15 +11 48 47.4          20.7 RoEE057926
         K14E12N  C2014 03 10.49987 13 27 57.39 +11 49 03.4          21.5 RoEE057926
         K14E12N  C2014 03 10.50361 13 28 01.67 +11 49 20.2          20.6 RoEE057926
    
    Observer details:
    926 Tenagra II Observatory.  Observers M. Schwartz, P. R. Holvorcem.  0.81-m
        f/7 Ritchey-Chretien + CCD.
    G96 Mt. Lemmon Survey.  Observer R. A. Kowalski.  Measurers E. J. Christensen,
        A. R. Gibbs, A. D. Grauer, R. E. Hill, J. A. Johnson, R. A. Kowalski,
        S. M. Larson, F. C. Shelly.  1.5-m reflector + CCD.
    
    Orbital elements:
    2014 EN12                                                Earth MOID = 0.0488 AU
    Epoch 2013 Nov. 4.0 TT = JDT 2456600.5                  MPC
    M 318.75676              (2000.0)            P               Q
    n   0.25974780     Peri.   50.05778     -0.85134624     +0.52284074
    a   2.4327723      Node   161.34017     -0.51291536     -0.81238145
    e   0.6038738      Incl.    7.71980     -0.11012450     -0.25821298
    P   3.79           H   25.3           G   0.15           U   8
    Residuals in seconds of arc
    140308 G96  0.3+  0.2+    140308 G96  0.2+  0.3+    140310 G96  0.7-  0.0
    140308 G96  0.2-  0.1+    140308 G96  0.0   0.3-    140310 G96  1.1+  0.1+
    140308 G96  0.6-  0.2+    140308 G96  0.3+  0.7+    140310 926  0.1-  0.2+
    140308 G96  0.5-  0.1-    140308 G96  0.3-  0.4-    140310 926  0.2-  0.3-
    140308 G96  0.2-  0.1-    140308 G96  0.1-  0.9-    140310 926  0.2+  0.1+
    140308 G96  1.1+  0.3+    140310 G96  0.2+  0.1+
    140308 G96  0.1+  0.1-    140310 G96  0.5-  0.1-
    
    Ephemeris:
    2014 EN12                a,e,i = 2.43, 0.60, 8                   q = 0.9637
    Date    TT    R. A. (2000) Decl.     Delta      r     Elong.  Phase     V
    2014 02 08    10 23 51.3 -01 11 00   0.2933  1.2634   158.2    16.8    24.0
    ...
    2014 02 23    11 00 34.1 +00 44 37   0.1671  1.1528   167.0    11.1    22.4
    ...
    2014 03 03    11 47 39.1 +04 26 26   0.1118  1.1003   166.4    12.2    21.5
    ...
    2014 03 09    13 00 49.5 +10 00 35   0.07998 1.0650   153.6    24.5    21.1
    2014 03 10    13 18 28.9 +11 12 39   0.07605 1.0595   149.9    28.0    21.1
    2014 03 11    13 38 00.5 +12 27 12   0.07266 1.0541   145.7    32.0    21.1
    ...
    2014 03 17    16 03 26.7 +18 15 30   0.06675 1.0246   114.7    61.9    21.7
    ...
    2014 03 25    18 33 55.3 +17 04 29   0.09407 0.9934    85.0    89.6    23.3
    ...
    2014 04 09    20 13 09.6 +12 30 31   0.1791  0.9643    73.0    96.8    25.0
    
    A. U. Tomatic                (C) Copyright 2014 MPC           M.P.E.C. 2014-E57
    

    Read MPEC 2014-E56 Read MPEC 2014-E58


    MPEC number:

    Enter an MPEC number in one of the following forms:

    • 1997-B01 (the full form)
    • J97B01 (the packed version of the full form)
    • B01 (the abbreviated form)